Temp
54 53 51 48 46 46 47 48 47 49 50 53 54 56 57 58 59 58 59 60 61 61 60 59 59 60 60 60 60 60 58 58 58 58 59 58 56 55 56 55 56 56 56 57 57 57 57 58 58 58 58 59 58 58 58 59 59 59 58 59 58 58
52 50 49 48 45 44 43 43 42 46 49 50 51 53 53 54 55 56 57 58 59 60 59 59 60 60 60 59 59 58 58 59 58 58 57 58 55 56 57 56 56 56 55 55 56 57 57 58 58 58 59 59 59 59 59 59 59 59 58 58 58 59
47 45 41 41 38 37 37 39 43 44 44 47 49 52 52 52 54 55 56 56 57 57 58 58 59 59 59 59 59 58 59 59 57 58 58 57 57 57 56 56 57 57 56 56 56 57 57 58 58 59 59 59 59 59 59 59 59 58 58 57 57 57
44 40 37 34 34 37 38 38 37 39 42 45 46 47 50 51 52 53 55 54 56 56 57 58 58 58 58 58 59 58 59 59 58 58 57 57 58 56 56 56 57 56 56 56 57 57 58 59 60 59 59 59 59 59 59 59 58 58 58 57 57 57
40 38 36 37 37 38 36 36 38 40 40 41 41 45 47 48 50 49 50 52 53 54 55 55 56 56 56 57 58 57 58 58 58 57 57 56 55 53 56 56 55 56 56 56 56 58 58 59 59 59 59 58 59 58 58 58 58 57 57 57 56 56
36 37 40 40 39 37 38 38 38 38 38 39 40 42 44 43 45 45 47 49 51 52 51 52 53 52 53 54 56 56 56 57 56 55 55 56 54 53 53 55 56 55 54 55 55 56 57 57 57 58 58 59 58 58 58 57 57 57 56 56 55 53
39 42 41 40 39 37 37 38 39 39 39 37 39 41 40 41 41 42 45 45 47 47 48 50 50 51 52 53 54 54 54 54 53 52 53 54 53 54 53 52 53 53 54 55 55 56 56 56 57 57 58 58 57 57 58 58 57 55 55 55 56 51
40 38 39 39 38 39 39 38 38 38 38 39 38 40 37 37 34 37 41 42 44 46 46 48 48 49 51 52 52 52 51 50 49 51 51 52 54 53 52 53 52 53 55 55 56 56 56 56 56 56 57 57 57 56 55 54 54 54 55 55 55 54
42 44 41 40 39 37 37 36 38 37 37 39 37 37 36 35 34 35 37 38 40 43 45 46 47 48 48 48 48 47 47 48 47 48 51 49 51 52 52 51 53 52 54 55 55 55 56 56 55 56 56 56 56 56 56 55 54 53 52 53 53 51
45 44 45 42 40 36 36 36 36 38 38 40 37 36 35 35 34 35 35 37 37 39 42 42 42 43 45 45 45 46 46 46 46 47 47 45 48 50 51 51 52 52 52 54 54 55 54 55 55 55 55 55 55 54 53 53 53 52 51 47 45 45
48 47 44 41 37 38 37 37 36 35 36 36 36 34 36 35 35 37 37 37 38 40 39 38 40 42 43 43 44 44 45 45 45 44 45 46 47 48 48 50 51 51 51 51 52 53 53 53 54 54 53 53 53 53 53 53 52 50 48 45 44 43
45 45 42 41 39 39 39 39 39 38 38 38 36 36 37 35 36 38 38 38 39 39 37 38 40 41 42 43 44 45 43 43 42 43 42 44 45 46 46 47 48 49 50 50 50 50 51 51 52 47 47 48 52 51 51 50 47 45 45 43 41 39
44 42 43 45 44 42 42 42 42 38 37 38 38 37 37 36 36 37 39 40 40 38 37 38 39 39 41 43 43 42 42 42 41 41 42 42 42 43 42 44 46 47 48 49 49 48 48 48 48 45 46 46 47 49 49 49 47 44 43 43 42 42
47 47 47 47 46 43 41 42 42 38 41 42 40 37 35 36 37 37 38 40 40 39 40 39 39 39 40 41 42 41 40 39 39 40 40 40 39 39 39 41 44 45 44 46 45 46 46 46 43 45 45 45 45 45 47 46 45 43 42 41 41 40
50 50 49 47 48 48 46 44 41 43 46 45 42 36 36 37 37 37 38 40 40 40 40 39 39 39 39 40 40 40 39 39 39 40 40 40 39 37 39 41 41 42 41 43 43 43 42 42 42 43 44 44 44 44 45 42 42 41 40 40 40 39
51 51 49 48 48 48 49 44 44 46 43 41 39 36 38 37 38 38 39 39 40 40 39 39 39 39 39 38 38 38 39 40 41 40 39 39 37 38 39 38 39 39 39 41 42 42 40 40 40 43 43 42 43 43 44 42 41 40 40 39 39 39
54 52 51 50 49 47 44 42 40 40 39 39 39 37 37 37 38 38 39 39 39 39 39 39 39 39 39 38 38 38 38 39 39 39 39 39 39 39 40 39 39 38 38 38 39 39 39 39 39 42 42 42 42 43 43 40 39 39 38 38 39 39
53 54 57 59 55 49 45 48 44 40 43 39 39 37 37 37 38 39 38 39 39 39 39 39 39 39 38 38 37 37 38 38 38 38 37 37 38 37 38 38 38 38 37 37 38 39 39 38 39 41 41 42 42 43 40 39 39 38 38 37 37 37
52 54 54 54 56 54 49 45 41 42 42 39 39 37 37 36 37 38 38 38 39 39 39 39 40 39 38 37 37 37 37 37 37 37 36 37 37 37 37 38 37 37 38 37 37 39 40 38 38 40 40 41 42 41 38 38 37 37 36 36 35 36
53 51 51 52 53 52 49 45 43 42 41 40 38 37 37 37 38 39 38 39 39 39 39 39 39 39 37 37 37 37 37 37 36 37 36 38 37 37 37 37 36 36 37 37 37 38 39 38 37 38 40 40 41 39 37 37 37 35 35 34 34 35
52 50 46 45 48 53 52 43 41 41 42 41 40 38 38 38 39 39 39 40 41 39 38 38 38 38 37 37 37 37 36 36 36 35 35 36 37 37 37 36 37 36 35 36 37 35 37 37 36 37 39 40 41 38 36 37 36 35 34 34 33 34
44 47 47 47 50 51 50 43 40 40 41 42 40 39 40 40 40 41 42 42 39 37 37 38 37 37 37 36 36 36 36 36 36 36 35 35 36 36 36 36 36 36 36 35 35 35 36 36 36 36 39 39 40 39 37 37 37 35 34 34 34 33
43 46 47 49 48 48 46 42 40 42 41 40 39 40 42 43 43 42 42 39 36 37 37 37 37 37 37 36 36 36 36 36 36 36 35 35 35 35 35 35 35 35 35 34 34 35 35 35 35 35 38 39 40 39 38 36 37 36 35 34 34 34
43 43 43 44 46 45 44 41 42 42 43 40 40 43 45 43 43 42 40 38 37 37 36 36 36 36 36 36 36 35 36 35 35 35 36 36 36 35 35 35 35 35 35 34 34 34 34 34 34 35 36 38 39 39 39 37 36 36 35 34 34 34
44 45 45 47 44 44 43 41 41 43 42 42 45 47 45 43 42 41 39 38 37 36 36 36 36 36 36 36 36 36 36 35 35 35 35 35 35 35 35 35 34 35 35 34 34 34 34 34 34 34 35 37 39 39 39 38 37 38 36 35 34 34
44 44 45 45 44 43 41 41 41 42 42 44 48 45 42 41 40 38 37 37 36 36 35 35 35 36 36 36 36 36 35 35 35 35 35 35 36 36 36 35 34 35 35 34 33 33 33 33 34 33 34 35 38 39 39 39 37 37 35 36 35 34
44 45 44 44 42 43 41 40 40 41 41 46 47 42 42 40 38 37 37 37 36 36 36 35 35 36 36 36 36 36 36 35 34 35 35 35 35 36 36 36 35 35 35 35 34 33 33 33 33 34 34 34 36 38 39 38 37 37 37 34 32 34
41 40 40 42 42 42 41 40 39 40 43 47 45 43 40 38 37 37 37 37 36 35 35 35 35 35 35 35 36 36 37 36 35 36 35 35 36 36 36 36 35 35 35 35 34 34 33 33 33 33 33 33 34 35 37 37 36 35 35 34 33 33
43 42 41 41 44 42 41 41 40 40 43 42 43 40 38 37 37 37 37 36 36 35 35 35 35 35 35 35 36 36 36 36 36 36 35 35 36 36 36 36 35 35 35 35 34 34 33 32 32 33 33 34 34 35 35 35 34 34 33 32 32 32
41 41 41 42 45 44 43 41 40 40 40 40 39 38 36 37 37 37 37 36 36 35 35 35 35 35 35 35 36 36 36 36 36 36 36 36 36 36 36 36 36 36 36 35 34 33 32 32 32 33 33 33 34 34 35 34 34 33 33 32 32 32
41 41 41 43 45 43 41 41 41 40 40 39 38 36 36 37 36 36 36 36 35 34 35 35 35 36 36 35 35 36 37 36 36 37 37 37 38 38 38 37 36 36 36 36 35 33 31 32 32 33 35 35 35 35 34 34 33 33 33 32 32 30
39 39 40 43 44 41 40 41 41 40 39 37 36 36 36 36 36 35 36 35 35 35 35 35 35 35 36 36 35 36 36 35 36 36 37 36 35 36 36 37 37 37 36 36 36 36 36 34 35 36 35 35 35 36 36 35 35 35 33 33 33 31
40 39 40 42 42 41 40 40 40 40 38 36 36 35 36 36 36 36 35 34 35 35 35 35 35 35 36 36 36 36 35 35 34 35 36 36 35 35 36 36 37 37 37 37 36 35 35 36 36 36 35 35 36 36 36 35 35 34 34 34 31 29
40 41 42 44 42 41 40 40 40 39 37 35 35 35 35 36 36 37 36 35 35 35 35 35 35 35 35 35 36 35 35 35 33 32 34 35 35 35 35 36 36 36 36 37 36 35 34 34 35 35 35 35 35 35 35 35 35 35 35 34 34 28
43 44 43 42 41 41 41 40 40 39 36 34 34 35 35 35 36 37 37 36 35 35 35 35 35 35 35 35 35 35 35 35 34 32 30 31 33 34 34 35 35 35 35 36 35 36 35 34 34 35 35 35 35 35 35 35 35 35 35 34 30 26
42 41 42 41 41 41 40 40 40 40 37 34 34 34 35 35 36 37 38 37 35 35 35 35 35 35 35 36 36 36 35 35 35 35 33 30 29 31 32 33 34 34 35 35 35 35 34 34 34 34 34 34 34 35 35 35 34 35 35 33 27 26
40 40 40 39 39 39 39 39 40 39 35 34 34 34 34 35 35 36 34 33 33 35 35 35 36 36 36 36 35 35 35 35 35 35 34 32 30 30 29 30 31 33 34 34 34 34 34 34 34 34 34 34 34 35 35 35 32 31 31 29 22 23
39 40 40 40 39 39 39 39 40 35 33 33 34 34 34 34 35 35 35 34 34 35 35 35 35 36 36 36 36 36 36 35 35 34 34 33 32 32 30 29 30 30 31 33 33 33 33 33 33 33 34 34 34 35 35 30 29 29 28 25 21 19
MSLP
1008.50 1008.42 1008.54 1008.82 1009.30 1009.46 1009.34 1009.34 1009.42 1009.38 1009.42 1009.34 1009.34 1009.22 1009.14 1009.30 1009.62 1009.82 1009.98 1010.14 1010.26 1010.30 1010.46 1010.70 1010.94 1011.10 1011.22 1011.34 1011.58 1011.86 1012.10 1012.18 1012.26 1012.42 1012.46 1012.70 1013.06 1013.38 1013.58 1013.82 1014.02 1014.18 1014.42 1014.62 1014.78 1014.98 1015.14 1015.26 1015.46 1015.62 1015.86 1016.06 1016.30 1016.38 1016.54 1016.62 1016.82 1016.94 1016.94 1016.86 1016.98 1017.06
1008.14 1008.38 1008.46 1008.54 1008.86 1009.26 1009.46 1009.54 1009.46 1009.18 1009.14 1009.26 1009.22 1009.18 1009.26 1009.42 1009.54 1009.62 1009.74 1009.70 1009.82 1009.90 1010.06 1010.30 1010.42 1010.58 1010.78 1010.94 1011.22 1011.46 1011.54 1011.58 1011.82 1012.02 1012.26 1012.34 1012.66 1012.86 1013.06 1013.38 1013.54 1013.82 1014.10 1014.30 1014.42 1014.58 1014.70 1014.90 1015.02 1015.18 1015.34 1015.54 1015.66 1015.78 1015.94 1016.02 1016.14 1016.22 1016.22 1016.26 1016.42 1016.54
1008.30 1008.54 1009.06 1009.30 1009.54 1009.58 1009.54 1009.38 1009.10 1009.06 1009.34 1009.22 1009.14 1009.14 1009.18 1009.30 1009.26 1009.42 1009.38 1009.50 1009.66 1009.78 1009.82 1009.90 1010.06 1010.18 1010.38 1010.62 1010.78 1010.94 1011.02 1011.14 1011.38 1011.54 1011.62 1012.02 1012.22 1012.38 1012.74 1012.94 1013.10 1013.38 1013.62 1013.86 1014.02 1014.14 1014.26 1014.46 1014.58 1014.70 1014.90 1015.02 1015.06 1015.18 1015.34 1015.46 1015.62 1015.74 1015.82 1015.90 1015.98 1016.18
1008.30 1008.98 1009.42 1009.58 1009.54 1009.14 1008.94 1009.10 1009.26 1009.18 1009.14 1009.10 1009.26 1009.34 1009.22 1009.10 1009.14 1009.22 1009.18 1009.38 1009.46 1009.54 1009.50 1009.58 1009.74 1009.90 1010.10 1010.26 1010.34 1010.50 1010.54 1010.66 1010.82 1010.98 1011.34 1011.54 1011.58 1011.98 1012.26 1012.46 1012.70 1012.94 1013.18 1013.38 1013.50 1013.66 1013.78 1013.90 1013.98 1014.18 1014.38 1014.54 1014.58 1014.66 1014.82 1014.98 1015.06 1015.06 1015.06 1015.22 1015.38 1015.50
1008.50 1008.62 1008.78 1008.58 1008.34 1008.42 1008.70 1008.70 1008.58 1008.46 1008.66 1009.02 1009.10 1009.06 1008.74 1009.02 1008.98 1009.14 1009.22 1009.22 1009.30 1009.22 1009.26 1009.42 1009.58 1009.66 1009.82 1009.94 1009.94 1010.02 1010.06 1010.18 1010.38 1010.62 1010.90 1011.10 1011.34 1011.66 1011.78 1012.02 1012.30 1012.50 1012.74 1012.94 1013.02 1013.18 1013.34 1013.42 1013.54 1013.70 1013.86 1014.02 1014.14 1014.22 1014.34 1014.42 1014.50 1014.58 1014.66 1014.78 1014.86 1015.02
1008.78 1008.38 1007.46 1007.34 1007.70 1007.74 1007.90 1007.98 1008.14 1008.38 1008.70 1008.86 1008.98 1008.66 1008.58 1009.02 1009.06 1009.10 1009.18 1009.10 1009.10 1009.06 1009.22 1009.26 1009.22 1009.46 1009.50 1009.54 1009.46 1009.54 1009.58 1009.78 1010.02 1010.30 1010.54 1010.70 1011.02 1011.30 1011.46 1011.62 1011.82 1012.10 1012.34 1012.50 1012.70 1012.82 1012.98 1013.14 1013.22 1013.30 1013.38 1013.46 1013.62 1013.78 1013.82 1013.90 1014.06 1014.14 1014.26 1014.46 1014.62 1014.86
1007.74 1007.26 1007.38 1007.38 1007.30 1007.66 1007.74 1007.66 1007.66 1007.86 1007.94 1008.62 1008.46 1008.42 1008.82 1008.90 1009.10 1009.06 1008.98 1009.02 1008.94 1009.06 1009.06 1008.94 1009.02 1009.10 1009.10 1009.06 1009.10 1009.18 1009.34 1009.58 1009.82 1010.06 1010.22 1010.46 1010.66 1010.82 1011.10 1011.38 1011.50 1011.74 1011.98 1012.14 1012.30 1012.46 1012.62 1012.70 1012.82 1012.90 1012.98 1013.06 1013.14 1013.30 1013.42 1013.42 1013.54 1013.74 1013.94 1014.10 1014.22 1014.30
1007.74 1007.62 1007.10 1007.14 1007.50 1007.22 1007.06 1007.38 1007.78 1008.02 1008.14 1007.94 1008.30 1008.02 1008.38 1008.70 1009.14 1009.14 1008.98 1008.98 1008.94 1008.82 1008.86 1008.74 1008.86 1008.82 1008.66 1008.74 1008.86 1008.98 1009.22 1009.46 1009.66 1009.82 1010.06 1010.18 1010.30 1010.54 1010.74 1010.94 1011.26 1011.38 1011.46 1011.62 1011.74 1011.90 1012.06 1012.22 1012.34 1012.46 1012.58 1012.66 1012.78 1012.86 1012.98 1013.14 1013.34 1013.50 1013.66 1013.78 1013.90 1014.02
1006.74 1006.30 1006.34 1006.50 1006.54 1006.98 1007.46 1007.62 1007.66 1008.02 1007.94 1007.66 1008.26 1008.58 1008.46 1008.54 1008.82 1008.98 1009.02 1009.06 1008.98 1008.82 1008.58 1008.62 1008.58 1008.62 1008.70 1008.74 1008.82 1009.06 1009.30 1009.42 1009.54 1009.70 1009.82 1010.02 1010.14 1010.26 1010.46 1010.66 1010.78 1010.98 1011.06 1011.14 1011.30 1011.46 1011.58 1011.78 1011.90 1012.02 1012.14 1012.30 1012.46 1012.54 1012.62 1012.74 1012.94 1013.18 1013.38 1013.50 1013.58 1013.74
1005.98 1005.86 1005.78 1006.18 1006.66 1007.62 1007.78 1008.18 1008.30 1007.98 1007.86 1007.26 1008.10 1008.50 1008.50 1008.62 1008.74 1008.82 1008.94 1009.06 1008.94 1008.86 1008.50 1008.54 1008.70 1008.86 1008.86 1008.94 1009.06 1009.14 1009.26 1009.42 1009.54 1009.62 1009.74 1009.98 1010.06 1010.06 1010.14 1010.26 1010.46 1010.58 1010.78 1010.78 1010.90 1010.98 1011.18 1011.34 1011.50 1011.66 1011.78 1011.90 1012.02 1012.22 1012.38 1012.50 1012.66 1012.86 1013.02 1013.18 1013.46 1013.66
1005.74 1005.94 1006.50 1006.78 1007.10 1006.98 1007.02 1007.22 1007.38 1008.06 1008.34 1008.50 1008.50 1008.54 1008.18 1008.62 1008.46 1008.46 1008.78 1009.02 1008.66 1008.18 1008.38 1008.70 1008.86 1008.98 1008.98 1009.02 1009.10 1009.10 1009.18 1009.30 1009.42 1009.58 1009.66 1009.74 1009.82 1009.94 1009.98 1010.06 1010.14 1010.30 1010.46 1010.58 1010.62 1010.74 1010.90 1011.02 1011.14 1011.30 1011.46 1011.62 1011.74 1011.86 1012.02 1012.18 1012.34 1012.54 1012.74 1013.02 1013.26 1013.42
1006.98 1006.70 1006.58 1006.58 1006.86 1006.78 1006.50 1006.38 1006.34 1006.58 1006.82 1006.90 1008.02 1008.30 1008.30 1008.82 1008.38 1008.22 1008.42 1008.42 1007.94 1008.10 1008.46 1008.66 1008.90 1008.94 1008.94 1008.98 1008.90 1008.90 1008.98 1009.06 1009.18 1009.26 1009.38 1009.42 1009.54 1009.70 1009.82 1009.90 1009.98 1010.02 1010.10 1010.30 1010.46 1010.54 1010.66 1010.74 1010.86 1010.94 1011.02 1011.18 1011.34 1011.58 1011.78 1011.98 1012.18 1012.38 1012.58 1012.78 1013.10 1013.38
1005.90 1006.22 1006.14 1005.86 1006.06 1006.34 1006.54 1006.34 1006.34 1006.90 1007.34 1007.06 1007.38 1007.46 1007.82 1008.46 1008.22 1008.02 1008.02 1007.62 1007.86 1008.18 1008.38 1008.58 1008.74 1008.86 1008.82 1008.62 1008.66 1008.66 1008.70 1008.74 1008.86 1008.94 1008.98 1009.10 1009.30 1009.46 1009.66 1009.74 1009.78 1009.86 1009.94 1010.02 1010.14 1010.30 1010.42 1010.50 1010.58 1010.66 1010.78 1010.94 1011.10 1011.30 1011.50 1011.70 1011.90 1012.14 1012.42 1012.62 1012.82 1012.98
1005.42 1005.50 1005.58 1005.38 1005.50 1005.94 1006.14 1006.06 1005.94 1006.42 1005.70 1005.94 1006.46 1007.10 1007.86 1008.14 1008.10 1007.50 1007.70 1007.74 1008.02 1008.22 1008.34 1008.42 1008.58 1008.66 1008.54 1008.50 1008.34 1008.34 1008.42 1008.50 1008.62 1008.66 1008.74 1008.86 1009.06 1009.30 1009.50 1009.50 1009.50 1009.62 1009.74 1009.82 1009.90 1009.98 1010.10 1010.22 1010.30 1010.38 1010.54 1010.70 1010.86 1011.06 1011.26 1011.46 1011.66 1012.02 1012.22 1012.46 1012.66 1012.90
1005.30 1005.34 1005.46 1005.66 1005.38 1005.10 1005.22 1005.82 1006.02 1005.30 1004.82 1005.14 1005.94 1007.10 1007.18 1007.58 1007.98 1008.02 1007.86 1007.62 1007.82 1007.90 1008.02 1008.14 1008.26 1008.30 1008.34 1008.26 1008.22 1008.30 1008.34 1008.34 1008.42 1008.50 1008.62 1008.62 1008.82 1009.06 1009.06 1009.10 1009.30 1009.38 1009.54 1009.54 1009.58 1009.74 1009.86 1009.90 1010.06 1010.18 1010.30 1010.42 1010.58 1010.78 1011.02 1011.26 1011.54 1011.82 1012.10 1012.38 1012.58 1012.82
1005.70 1005.38 1005.38 1005.50 1005.38 1005.22 1004.86 1005.26 1005.30 1004.94 1005.26 1005.58 1006.10 1006.18 1006.58 1007.06 1007.58 1007.86 1007.54 1007.50 1007.50 1007.58 1007.70 1007.82 1007.94 1007.98 1008.02 1008.18 1008.22 1008.26 1008.26 1008.30 1008.30 1008.46 1008.62 1008.70 1008.90 1008.86 1008.90 1009.02 1009.02 1009.14 1009.26 1009.30 1009.30 1009.42 1009.58 1009.58 1009.86 1009.98 1010.14 1010.30 1010.46 1010.66 1010.86 1011.14 1011.38 1011.66 1011.98 1012.26 1012.50 1012.74
1004.82 1004.98 1004.82 1004.62 1004.50 1004.62 1004.90 1005.10 1005.46 1005.66 1005.78 1005.66 1005.54 1005.90 1006.18 1006.78 1007.06 1007.46 1007.42 1007.30 1007.30 1007.46 1007.42 1007.42 1007.50 1007.58 1007.78 1007.94 1008.02 1008.10 1008.14 1008.22 1008.38 1008.50 1008.54 1008.62 1008.62 1008.70 1008.70 1008.74 1008.82 1008.98 1009.06 1009.18 1009.22 1009.22 1009.30 1009.46 1009.74 1009.82 1009.94 1010.06 1010.22 1010.42 1010.70 1011.06 1011.30 1011.54 1011.78 1012.10 1012.38 1012.46
1004.46 1004.42 1004.10 1003.66 1003.74 1003.98 1004.38 1004.38 1004.82 1005.34 1004.78 1005.42 1005.66 1005.78 1006.14 1006.30 1006.70 1006.86 1007.14 1007.06 1006.98 1007.10 1007.14 1007.06 1006.98 1007.22 1007.54 1007.74 1007.86 1007.90 1007.90 1008.06 1008.14 1008.22 1008.50 1008.62 1008.70 1008.78 1008.82 1008.78 1008.78 1008.70 1008.86 1009.06 1009.10 1009.10 1009.02 1009.34 1009.62 1009.66 1009.74 1009.82 1009.98 1010.22 1010.62 1010.90 1011.06 1011.26 1011.54 1011.86 1012.18 1012.38
1004.06 1004.02 1003.98 1003.86 1003.62 1003.78 1004.02 1004.30 1004.74 1004.78 1004.66 1005.06 1005.22 1005.74 1005.86 1006.30 1006.26 1006.18 1006.34 1006.46 1006.42 1006.62 1006.86 1006.82 1006.54 1006.74 1007.14 1007.50 1007.70 1007.70 1007.70 1007.78 1007.90 1008.10 1008.46 1008.46 1008.58 1008.62 1008.70 1008.58 1008.62 1008.70 1008.66 1008.82 1008.94 1008.74 1008.82 1009.10 1009.46 1009.58 1009.58 1009.66 1009.82 1010.18 1010.58 1010.86 1011.14 1011.42 1011.70 1012.06 1012.42 1012.66
1003.78 1003.82 1003.90 1003.78 1003.70 1003.62 1003.74 1003.86 1004.10 1004.22 1004.38 1004.58 1005.10 1005.50 1005.54 1005.86 1005.54 1005.54 1005.74 1005.58 1005.58 1005.82 1006.22 1006.50 1006.34 1006.30 1006.66 1007.10 1007.18 1007.26 1007.54 1007.74 1007.86 1007.86 1008.26 1008.14 1008.26 1008.34 1008.46 1008.58 1008.54 1008.62 1008.62 1008.58 1008.62 1008.66 1008.58 1008.86 1009.26 1009.42 1009.46 1009.54 1009.74 1009.98 1010.30 1010.70 1010.90 1011.34 1011.78 1012.30 1012.74 1012.98
1003.58 1003.78 1003.98 1004.02 1003.78 1003.10 1003.10 1003.58 1003.94 1004.18 1004.10 1004.26 1004.54 1004.98 1005.10 1005.26 1005.22 1005.26 1004.94 1004.42 1004.42 1004.90 1005.50 1006.02 1006.26 1006.10 1006.26 1006.50 1006.62 1006.94 1007.26 1007.46 1007.66 1007.90 1008.18 1008.18 1008.22 1008.22 1008.50 1008.66 1008.50 1008.62 1008.78 1008.66 1008.46 1008.62 1008.58 1008.74 1009.10 1009.34 1009.42 1009.54 1009.70 1009.98 1010.26 1010.46 1010.62 1011.02 1011.74 1012.42 1013.02 1013.38
1004.14 1003.90 1003.82 1003.82 1003.46 1003.10 1003.22 1003.54 1004.02 1004.06 1004.06 1003.98 1004.30 1004.42 1004.34 1004.46 1004.38 1004.02 1003.86 1003.62 1003.98 1004.70 1005.22 1005.62 1005.86 1005.82 1005.82 1005.94 1006.34 1006.74 1006.98 1007.30 1007.58 1007.70 1007.90 1008.10 1008.18 1008.26 1008.50 1008.66 1008.58 1008.42 1008.50 1008.70 1008.70 1008.70 1008.70 1008.78 1009.10 1009.34 1009.42 1009.50 1009.66 1009.86 1010.10 1010.34 1010.42 1010.86 1011.62 1012.30 1012.86 1013.30
1004.26 1004.02 1003.78 1003.74 1003.62 1003.46 1003.42 1003.66 1003.78 1003.58 1003.66 1003.98 1004.22 1003.82 1003.54 1003.42 1003.34 1003.30 1003.30 1003.66 1004.14 1004.46 1004.78 1005.14 1005.34 1005.38 1005.42 1005.62 1005.98 1006.46 1006.82 1006.98 1007.06 1007.34 1007.50 1007.58 1007.90 1008.10 1008.34 1008.46 1008.54 1008.46 1008.46 1008.70 1008.70 1008.66 1008.78 1008.86 1008.94 1009.22 1009.38 1009.50 1009.62 1009.78 1009.90 1010.18 1010.10 1010.38 1011.06 1011.82 1012.50 1012.94
1003.94 1003.90 1003.82 1003.66 1003.62 1003.66 1003.70 1003.78 1003.66 1003.22 1003.18 1003.42 1003.22 1002.62 1002.54 1002.82 1002.66 1002.66 1003.06 1003.46 1003.58 1003.94 1004.38 1004.66 1004.94 1005.18 1005.30 1005.54 1005.82 1006.14 1006.30 1006.62 1006.86 1007.02 1007.14 1007.30 1007.46 1007.62 1007.82 1008.18 1008.34 1008.30 1008.46 1008.70 1008.70 1008.66 1008.70 1008.90 1008.90 1008.98 1009.18 1009.30 1009.54 1009.70 1009.78 1009.90 1009.86 1009.90 1010.46 1011.38 1012.10 1012.62
1003.54 1003.38 1003.26 1003.18 1003.46 1003.54 1003.46 1003.62 1003.38 1002.94 1002.94 1002.98 1001.94 1001.58 1002.02 1002.10 1002.14 1002.50 1002.82 1003.06 1003.30 1003.58 1003.90 1004.22 1004.46 1004.74 1004.98 1005.14 1005.30 1005.54 1005.82 1006.30 1006.66 1006.82 1006.90 1006.98 1007.18 1007.30 1007.46 1007.74 1007.94 1008.10 1008.26 1008.50 1008.66 1008.70 1008.78 1008.86 1008.98 1008.94 1008.98 1009.14 1009.34 1009.58 1009.66 1009.62 1009.70 1009.74 1009.94 1010.38 1011.18 1011.94
1003.46 1003.38 1003.10 1003.22 1003.30 1003.26 1003.26 1003.42 1003.06 1002.62 1002.34 1001.70 1001.02 1001.46 1001.70 1001.74 1001.98 1002.26 1002.46 1002.58 1002.82 1003.22 1003.54 1003.82 1004.14 1004.34 1004.54 1004.66 1004.94 1005.26 1005.54 1005.94 1006.26 1006.54 1006.58 1006.66 1006.82 1006.98 1007.14 1007.38 1007.78 1008.06 1008.06 1008.10 1008.34 1008.66 1008.82 1008.90 1008.94 1008.94 1008.90 1009.02 1009.18 1009.38 1009.50 1009.58 1009.62 1009.62 1009.86 1010.22 1010.74 1011.54
1003.14 1003.02 1002.94 1002.94 1003.02 1002.98 1002.98 1003.10 1003.02 1002.30 1002.06 1001.06 1000.82 1001.18 1001.10 1001.34 1001.78 1002.02 1002.02 1002.06 1002.34 1002.66 1002.98 1003.50 1003.78 1003.98 1004.14 1004.26 1004.50 1004.86 1005.10 1005.50 1005.90 1006.10 1006.30 1006.34 1006.46 1006.54 1006.70 1006.94 1007.38 1007.50 1007.54 1007.78 1007.94 1008.34 1008.70 1008.82 1008.94 1008.94 1009.02 1009.06 1009.18 1009.26 1009.38 1009.46 1009.50 1009.62 1009.86 1010.34 1010.94 1011.34
1003.22 1003.18 1002.94 1002.50 1002.70 1002.74 1002.58 1002.58 1002.70 1002.30 1001.14 1000.70 1000.78 1000.74 1000.90 1001.18 1001.42 1001.54 1001.46 1001.62 1001.98 1002.30 1002.90 1003.30 1003.58 1003.86 1004.02 1004.10 1004.14 1004.30 1004.46 1004.66 1005.18 1005.34 1005.70 1005.90 1005.90 1006.02 1006.18 1006.54 1006.98 1007.14 1007.26 1007.38 1007.70 1008.06 1008.42 1008.74 1008.90 1008.94 1009.02 1009.14 1009.18 1009.22 1009.22 1009.26 1009.42 1009.66 1009.94 1010.30 1010.78 1011.22
1002.58 1002.42 1002.54 1002.30 1001.90 1002.22 1002.06 1001.86 1001.86 1001.66 1001.06 1000.82 1000.50 1000.74 1000.94 1001.02 1000.98 1000.98 1001.18 1001.42 1001.66 1002.14 1002.58 1002.86 1003.06 1003.34 1003.58 1003.74 1003.86 1004.02 1004.22 1004.42 1004.78 1004.98 1005.26 1005.46 1005.42 1005.50 1005.70 1006.02 1006.46 1006.66 1006.86 1006.98 1007.34 1007.90 1008.38 1008.66 1008.74 1008.82 1008.94 1009.10 1009.22 1009.26 1009.22 1009.22 1009.42 1009.74 1010.14 1010.62 1011.10 1011.58
1002.50 1002.22 1002.14 1001.94 1001.58 1001.74 1001.50 1001.18 1001.10 1000.94 1000.82 1000.58 1000.62 1000.78 1000.94 1000.82 1000.78 1000.70 1000.74 1000.90 1001.26 1001.66 1001.98 1002.18 1002.26 1002.58 1002.90 1003.14 1003.22 1003.38 1003.70 1004.02 1004.22 1004.34 1004.30 1004.38 1004.30 1004.50 1004.82 1005.14 1005.50 1005.70 1005.94 1006.38 1007.02 1007.74 1008.26 1008.46 1008.46 1008.50 1008.62 1008.86 1008.98 1009.06 1009.02 1009.10 1009.38 1009.74 1010.14 1010.66 1011.26 1011.74
1002.26 1002.06 1001.98 1001.58 1001.18 1001.30 1001.26 1000.90 1000.62 1000.46 1000.38 1000.26 1000.42 1000.66 1000.70 1000.50 1000.50 1000.62 1000.46 1000.74 1001.18 1001.34 1001.62 1001.78 1001.86 1002.02 1002.22 1002.62 1002.90 1002.86 1002.82 1002.90 1003.22 1003.34 1003.54 1003.82 1004.10 1004.02 1003.86 1004.22 1004.82 1005.34 1005.78 1006.18 1006.82 1007.42 1007.90 1008.06 1007.90 1007.62 1007.82 1007.98 1008.06 1008.22 1008.54 1008.86 1009.14 1009.50 1009.94 1010.42 1010.94 1011.66
1002.62 1002.34 1001.90 1001.26 1000.90 1001.06 1000.94 1000.50 1000.14 999.98 1000.02 1000.06 1000.18 1000.38 1000.34 1000.10 1000.30 1000.38 1000.22 1000.54 1000.94 1001.02 1001.34 1001.42 1001.50 1001.62 1001.82 1002.06 1002.34 1002.62 1002.90 1003.02 1003.14 1003.34 1003.46 1003.66 1003.98 1004.14 1004.18 1004.14 1004.42 1004.82 1005.38 1005.90 1006.18 1006.30 1006.30 1006.54 1006.62 1007.18 1007.70 1007.90 1007.90 1007.90 1007.94 1008.14 1008.46 1008.90 1009.50 1010.14 1010.66 1011.18
1002.18 1002.22 1001.66 1000.98 1000.62 1000.58 1000.38 1000.14 999.70 999.54 999.54 999.78 999.86 999.94 999.82 999.90 999.94 999.94 999.94 1000.14 1000.38 1000.54 1000.58 1000.70 1000.90 1001.18 1001.38 1001.54 1001.78 1002.10 1002.30 1002.78 1003.10 1003.18 1003.34 1003.50 1003.70 1003.94 1004.06 1004.14 1004.30 1004.62 1004.74 1004.82 1005.42 1006.02 1006.26 1006.38 1006.54 1006.90 1007.42 1007.66 1007.66 1007.74 1007.94 1008.30 1008.70 1009.22 1009.70 1010.14 1010.74 1011.42
1001.66 1001.34 1000.74 1000.22 1000.14 1000.06 999.90 999.66 999.22 999.14 999.10 999.38 999.54 999.62 999.58 999.58 999.58 999.34 999.30 999.42 999.46 999.98 1000.38 1000.42 1000.46 1000.70 1001.02 1001.22 1001.38 1001.54 1001.74 1002.10 1002.62 1003.18 1003.26 1003.26 1003.42 1003.58 1003.66 1003.82 1004.02 1004.22 1004.42 1004.70 1004.98 1005.42 1005.98 1006.30 1006.58 1006.90 1007.38 1007.58 1007.66 1007.82 1008.14 1008.54 1008.94 1009.34 1009.74 1010.14 1010.42 1011.10
1001.10 1000.70 1000.34 1000.02 999.90 999.66 999.34 999.14 998.58 998.50 998.70 998.94 999.22 999.38 999.30 999.18 999.22 998.82 998.70 998.90 999.02 999.34 999.82 1000.10 1000.14 1000.26 1000.42 1000.62 1000.86 1001.10 1001.22 1001.46 1001.78 1002.22 1002.82 1003.38 1003.42 1003.50 1003.70 1003.86 1003.90 1004.02 1004.22 1004.46 1004.82 1005.14 1005.38 1005.78 1006.34 1006.90 1007.22 1007.46 1007.54 1007.74 1008.06 1008.42 1008.86 1009.30 1009.70 1010.14 1010.62 1011.14
1000.62 1000.42 1000.02 999.66 999.38 999.30 999.02 998.62 997.90 997.82 998.22 998.58 998.78 998.94 998.78 998.58 998.58 998.42 998.22 998.30 998.46 998.74 999.14 999.38 999.46 999.62 999.74 999.90 1000.18 1000.30 1000.50 1000.66 1000.82 1001.10 1001.78 1002.74 1003.34 1003.74 1003.94 1003.90 1003.78 1003.86 1004.14 1004.38 1004.58 1004.90 1005.34 1005.78 1006.14 1006.46 1006.82 1007.10 1007.30 1007.58 1007.94 1008.38 1008.86 1009.26 1009.58 1009.90 1010.54 1011.14
1000.30 999.98 999.58 999.26 999.10 998.94 998.66 998.06 997.26 997.38 997.98 998.18 998.38 998.46 998.38 998.22 998.14 998.26 998.18 998.10 998.30 998.38 998.38 998.66 998.86 999.06 999.30 999.58 999.82 1000.02 1000.22 1000.38 1000.66 1001.10 1001.54 1002.02 1002.22 1002.46 1002.74 1003.26 1003.66 1003.90 1003.90 1004.22 1004.58 1004.86 1005.10 1005.54 1006.06 1006.50 1006.70 1006.94 1007.22 1007.54 1007.90 1008.38 1009.02 1009.50 1009.86 1010.30 1010.82 1011.14
999.98 999.50 998.94 998.74 998.74 998.54 998.14 997.38 996.74 997.30 997.74 997.94 997.98 998.02 997.90 997.82 997.82 997.86 997.98 998.10 998.18 998.30 998.30 998.34 998.38 998.50 998.66 998.86 999.14 999.46 999.82 1000.18 1000.58 1000.86 1001.22 1001.62 1002.02 1002.30 1002.78 1003.34 1003.66 1003.90 1004.14 1004.38 1004.62 1004.70 1005.02 1005.46 1005.86 1006.26 1006.54 1006.70 1006.94 1007.26 1007.58 1008.26 1008.82 1009.26 1009.74 1010.42 1011.06 1011.34
Wind_Speed
13 12 11 9 7 8 8 6 5 5 6 7 9 12 13 12 10 9 9 10 10 11 13 13 13 12 12 12 12 10 11 12 12 11 12 9 7 7 8 8 9 9 9 9 9 8 10 9 10 10 10 10 10 11 11 10 11 11 12 12 12 11
11 8 9 8 7 6 6 5 4 6 8 7 8 8 6 5 8 9 11 12 11 11 9 10 11 12 12 12 11 12 12 12 11 11 10 11 7 9 9 8 10 9 9 8 9 9 9 9 9 9 10 10 10 10 10 10 12 12 13 12 11 11
9 7 5 5 5 4 4 4 6 6 4 6 7 9 8 7 9 8 10 8 9 10 11 11 11 12 11 11 12 12 12 12 10 11 11 7 9 9 8 9 10 9 9 9 10 10 10 10 10 9 10 10 10 10 11 11 11 12 10 10 10 10
7 5 4 4 4 6 6 5 4 5 6 7 5 5 7 8 8 8 8 7 8 10 11 11 8 9 9 11 11 12 12 11 11 11 9 10 10 8 9 10 9 8 9 10 10 10 10 11 11 10 9 10 11 11 9 10 12 13 13 11 12 12
5 5 6 6 6 6 5 4 5 6 6 6 6 7 9 7 7 6 6 7 7 10 9 8 8 8 9 11 11 12 12 12 10 9 10 10 8 7 9 10 9 10 10 10 10 11 11 11 10 9 10 10 10 11 10 10 11 12 12 12 11 10
5 6 7 7 6 6 6 6 5 5 5 6 5 9 9 6 6 6 6 7 8 8 7 9 9 8 9 11 12 13 12 11 9 8 9 9 7 9 8 9 10 9 10 10 10 10 10 10 10 9 10 11 10 10 12 11 10 10 10 9 8 7
6 7 7 7 7 5 5 6 5 5 6 5 7 7 6 6 5 6 7 7 8 8 8 10 9 10 11 12 11 12 10 9 8 7 9 8 8 9 8 8 7 8 9 10 10 10 10 10 10 10 10 10 10 9 10 12 11 9 8 9 10 10
5 6 7 6 6 6 5 4 5 5 5 7 6 7 5 6 4 5 6 6 8 9 10 10 9 11 12 12 10 10 8 7 7 7 7 8 9 8 8 9 8 9 10 10 10 10 11 10 10 10 10 10 10 10 7 5 6 8 9 9 8 8
9 8 7 7 6 5 4 4 5 6 7 8 6 6 5 5 5 5 6 6 7 8 9 9 10 9 8 8 8 6 6 7 7 7 8 7 7 8 8 8 9 8 9 10 9 10 10 9 10 10 9 8 9 10 10 8 7 7 6 7 8 6
7 7 8 6 5 3 4 5 6 7 6 9 5 5 6 5 5 5 6 6 7 8 10 8 6 5 6 5 4 5 5 5 5 6 5 5 7 8 8 8 9 8 8 10 9 9 9 9 9 9 10 9 8 7 7 7 8 7 7 6 5 6
8 8 6 4 4 6 7 7 7 6 7 8 6 5 7 5 6 7 7 7 9 11 8 5 5 5 6 5 5 6 6 6 5 5 6 6 6 6 7 7 8 8 9 8 8 8 7 8 9 7 8 8 8 8 8 8 8 8 7 6 6 6
8 7 5 6 6 6 7 8 8 7 7 8 7 8 7 5 7 7 8 9 11 8 5 6 6 6 6 6 7 7 6 6 6 7 6 7 7 7 7 7 7 8 8 8 8 7 7 7 6 8 13 11 9 7 7 6 7 6 6 6 5 4
6 5 7 9 8 8 8 8 8 5 6 9 8 9 7 7 8 9 9 11 8 5 5 6 6 5 7 7 6 6 7 7 6 6 7 6 7 7 7 7 8 7 7 8 8 8 7 6 6 11 12 12 12 8 6 7 7 6 6 6 8 8
8 8 9 9 9 8 7 9 9 6 10 9 10 7 4 6 8 11 11 9 5 6 7 7 6 7 8 6 8 7 6 5 6 6 6 6 6 6 5 6 7 7 7 7 6 7 7 6 9 12 11 11 12 10 7 6 6 6 7 6 7 6
9 9 10 9 10 9 10 8 7 9 11 10 5 2 6 7 8 8 10 8 7 7 7 6 7 8 7 8 6 6 5 5 5 5 6 6 5 4 6 6 6 6 6 7 7 7 7 7 9 11 11 11 11 13 9 5 5 6 6 6 7 7
10 11 10 10 10 10 11 7 9 11 7 6 3 4 5 6 7 8 9 6 7 7 7 7 7 8 7 6 6 6 6 6 7 5 5 4 4 5 5 5 6 5 6 7 7 7 6 6 8 11 11 11 11 11 10 6 7 6 6 7 7 7
13 10 11 11 12 9 7 7 8 7 6 6 6 6 5 5 6 7 8 7 6 6 7 8 8 8 6 6 6 6 7 7 6 6 6 5 6 6 7 6 6 6 6 6 6 6 6 6 9 11 11 11 12 12 10 6 6 6 6 6 7 8
11 13 14 13 10 8 7 9 5 5 11 6 6 6 6 6 6 8 6 8 9 9 8 9 8 7 6 6 6 7 8 8 8 8 5 5 5 5 4 5 5 7 7 6 6 6 6 5 10 11 12 13 13 14 7 7 7 6 6 6 5 5
8 11 10 10 12 9 7 6 5 8 9 6 8 6 7 6 8 9 9 10 10 10 9 9 9 9 8 7 8 9 9 9 8 6 5 6 6 6 6 7 6 5 7 7 7 7 7 6 9 12 12 13 14 10 5 6 5 5 5 3 3 3
8 9 9 11 11 11 8 7 6 7 8 8 6 7 8 8 11 10 9 11 11 11 10 10 10 10 10 9 11 10 8 5 5 6 6 7 6 6 6 5 5 5 6 8 8 8 7 6 9 12 12 13 14 11 8 6 6 5 4 3 1 2
8 8 7 7 11 16 12 7 6 6 9 9 8 8 9 10 11 10 12 14 14 11 10 9 9 10 10 11 11 9 9 8 7 3 5 5 5 6 5 5 6 5 5 6 7 9 9 6 8 11 12 13 14 9 6 7 6 7 5 5 3 3
7 9 10 10 14 14 11 7 5 7 9 10 8 9 11 12 13 15 14 13 7 6 8 9 10 10 11 12 9 8 8 6 6 7 6 5 4 4 4 5 5 7 6 5 5 6 7 7 5 8 11 12 14 12 7 6 7 7 8 6 6 5
5 9 11 10 10 10 9 6 6 10 10 9 7 12 14 13 13 14 13 8 6 7 10 10 11 12 11 9 9 7 6 7 8 7 8 8 6 5 5 6 5 5 5 5 5 5 5 5 6 7 11 12 13 13 11 7 7 7 8 7 6 5
8 9 10 10 11 10 9 6 8 12 11 9 12 16 14 11 14 13 9 8 10 10 10 10 10 9 9 8 8 9 9 7 7 8 8 7 7 8 8 7 6 5 5 4 5 4 5 4 6 6 10 12 13 14 12 8 7 8 9 7 5 4
10 11 12 11 8 7 8 7 10 13 12 12 18 16 11 12 12 10 9 9 9 10 10 10 11 11 9 10 10 10 10 8 8 8 8 9 8 9 8 7 6 6 6 5 4 4 3 4 4 8 8 11 13 14 13 12 9 12 9 9 8 7
10 11 11 10 8 8 8 7 11 13 14 18 18 11 10 11 9 8 9 10 10 9 10 10 11 10 9 10 10 10 10 10 9 8 8 8 8 8 8 7 7 7 7 8 6 4 4 3 4 5 8 9 14 14 13 11 10 11 7 7 6 6
13 12 12 11 9 9 8 7 11 15 16 19 15 10 12 10 8 9 11 11 10 11 10 9 9 10 9 9 10 11 10 10 10 9 8 9 9 9 9 8 8 8 7 6 7 6 5 4 4 3 6 9 11 13 12 12 11 10 11 7 5 6
9 10 12 14 10 11 10 9 9 14 19 16 13 12 9 8 9 10 13 11 10 10 8 10 9 9 9 10 9 10 9 11 11 10 9 9 9 8 9 8 8 8 7 7 6 6 6 5 4 4 4 5 7 9 12 12 12 12 11 9 7 9
12 12 10 13 14 10 11 11 10 13 15 14 14 9 7 8 11 12 11 11 10 9 10 12 10 10 10 10 9 9 9 9 9 9 9 9 10 10 9 9 9 9 8 8 7 6 6 6 5 5 5 5 6 6 8 9 8 11 10 7 6 7
11 13 13 15 15 11 12 12 11 12 13 13 11 8 7 9 11 12 12 13 10 10 11 11 13 13 10 10 11 11 10 9 10 11 12 14 14 14 12 11 11 11 11 9 7 6 6 6 6 7 7 7 7 7 7 7 7 7 7 7 6 6
12 13 13 17 16 12 12 14 13 12 13 12 9 7 9 11 11 11 11 10 8 9 9 10 10 10 10 10 10 9 10 12 12 13 10 7 5 8 10 10 8 6 5 6 7 8 7 6 9 10 9 10 13 12 10 9 9 8 7 9 12 9
10 12 15 17 15 11 13 15 15 12 10 9 7 8 11 12 10 10 11 9 9 9 9 9 10 10 10 10 10 10 8 7 8 7 8 7 7 8 7 8 8 8 8 7 8 10 11 12 10 10 15 13 14 14 13 10 11 10 10 14 17 10
11 11 15 18 14 12 12 13 14 13 10 7 8 9 11 10 10 10 9 9 10 11 11 11 10 10 10 10 10 9 10 7 6 9 10 8 9 10 10 11 10 12 14 11 10 8 4 2 6 15 16 15 15 15 14 13 14 15 17 18 12 6
14 15 18 16 13 13 13 14 15 13 10 7 8 9 10 11 11 11 11 11 10 11 11 9 10 10 10 10 10 10 10 10 9 6 6 9 12 13 14 14 13 14 15 13 9 8 5 6 10 15 15 14 14 14 14 14 15 17 18 17 12 7
13 15 15 15 14 15 15 15 16 13 9 7 8 9 11 12 12 13 11 10 10 10 11 10 10 10 11 11 12 11 11 11 11 13 10 4 7 11 11 11 11 13 14 13 12 13 10 9 12 15 15 15 15 15 14 15 17 17 18 16 8 6
13 13 15 16 17 16 16 17 18 15 8 7 8 9 12 12 13 14 11 10 11 11 11 11 11 11 11 11 10 11 11 12 12 12 11 10 8 6 3 6 10 12 13 12 14 14 12 11 14 16 17 16 16 16 16 15 12 16 18 12 8 7
13 14 16 18 17 16 16 18 20 13 5 7 8 9 11 11 12 10 12 13 10 10 11 11 10 10 10 10 10 10 11 11 10 9 11 12 14 14 13 10 7 8 11 11 11 12 14 14 14 14 15 16 16 17 18 16 11 10 9 6 4 6
12 15 17 17 14 15 17 19 18 6 5 7 9 10 11 11 10 10 9 8 10 10 9 9 10 10 11 11 10 10 9 8 8 10 10 9 8 8 8 7 6 5 6 10 10 14 15 15 16 15 15 16 18 19 19 11 9 8 7 6 5 6
Wind_Direction
251 248 247 243 235 237 237 242 223 229 230 226 218 219 217 215 210 211 214 211 214 216 216 213 215 217 220 221 221 218 217 219 219 218 222 223 206 198 201 199 205 205 205 208 213 209 212 212 214 210 211 208 214 216 220 217 216 219 222 223 222 226
254 257 257 259 248 244 243 240 232 227 226 221 228 235 230 217 211 209 213 214 214 219 216 217 216 217 218 218 214 217 219 221 219 218 221 220 201 205 201 200 206 202 202 205 209 212 212 211 214 211 213 210 215 215 217 216 215 221 223 224 218 220
266 263 266 269 278 269 256 227 222 230 231 230 227 223 226 221 220 211 220 214 218 220 220 218 214 217 216 218 217 219 221 222 218 218 218 210 211 203 196 203 205 201 201 202 207 212 211 211 213 212 213 214 217 216 216 214 214 219 225 226 225 224
272 285 288 281 268 260 248 234 225 233 228 229 230 232 232 222 223 214 219 214 216 219 224 224 219 218 216 218 220 221 221 221 217 216 210 211 216 195 199 204 202 198 199 203 208 212 214 215 216 212 212 216 219 221 217 218 217 219 224 221 224 220
284 293 290 282 274 266 249 234 211 215 220 220 222 217 232 217 223 216 214 215 215 223 225 223 222 216 216 218 221 223 221 222 219 210 211 212 211 193 198 203 198 200 201 206 211 212 215 216 217 214 213 216 219 220 220 220 221 224 224 226 228 224
298 306 290 284 273 256 246 230 221 223 223 219 214 222 230 220 223 216 213 219 223 223 220 221 220 213 216 219 221 222 222 219 218 204 207 211 202 200 205 200 201 200 201 208 211 214 214 216 217 217 216 218 218 221 223 222 225 226 224 222 222 218
282 265 258 256 250 242 240 235 228 222 227 216 219 230 225 225 217 210 219 217 225 226 221 224 216 215 218 221 221 224 221 217 213 202 206 204 206 208 200 207 202 200 202 207 210 212 213 215 215 217 218 219 219 221 224 225 223 220 220 220 222 223
263 254 246 247 245 239 231 235 240 240 235 230 217 219 218 222 212 221 221 218 220 226 223 226 219 219 222 221 223 222 217 212 209 206 209 203 210 207 205 201 201 203 207 209 211 212 212 212 213 216 219 219 220 223 223 217 211 214 218 223 227 229
253 250 250 231 232 228 247 248 249 244 242 245 232 225 216 212 196 215 219 227 228 232 231 225 223 223 225 224 225 220 213 213 211 205 210 202 208 207 205 205 205 205 209 213 211 213 212 212 212 215 215 218 219 221 222 222 223 217 212 216 223 220
281 269 261 273 277 294 266 248 243 245 244 253 243 225 219 205 190 207 217 221 231 234 236 231 229 229 231 232 228 222 219 213 209 211 203 184 205 211 207 203 204 206 205 214 212 212 209 210 211 211 213 214 214 214 219 219 219 221 220 221 208 191
261 269 276 269 267 265 262 258 254 248 255 255 255 234 227 199 191 209 216 222 230 233 227 222 222 224 226 222 220 218 212 207 206 200 198 199 209 210 212 206 202 206 211 214 213 212 208 209 211 204 204 210 213 211 214 214 215 215 216 211 209 205
245 266 282 278 259 255 253 256 252 244 242 255 241 232 229 179 209 206 214 224 232 232 215 213 215 214 213 214 214 213 204 200 200 196 199 204 204 206 208 208 208 208 207 206 210 210 207 209 206 204 204 203 209 206 208 210 211 206 201 193 185 195
293 278 276 273 264 250 254 254 257 255 250 248 240 231 210 188 210 209 213 229 232 224 211 210 215 204 213 211 207 202 197 200 195 199 203 203 201 204 206 204 207 210 207 204 201 204 207 205 201 204 204 207 206 200 196 197 203 197 189 184 184 195
275 272 266 264 263 255 245 250 247 242 247 244 240 232 176 197 216 203 216 229 221 216 212 212 206 209 217 205 207 197 195 186 188 195 195 190 195 203 190 198 204 201 201 200 199 199 199 202 203 199 199 197 198 191 189 191 189 187 190 188 189 185
271 269 265 256 256 255 247 234 248 246 243 243 239 141 186 209 225 224 223 225 214 215 209 202 207 214 212 210 202 196 192 194 197 200 194 199 198 178 183 199 187 198 197 189 189 199 194 201 197 195 195 195 191 188 180 183 180 179 190 186 181 178
266 260 253 258 259 247 250 224 226 243 250 247 209 190 211 211 230 226 231 225 220 214 206 201 205 212 210 197 195 193 203 208 217 212 208 198 189 196 200 196 195 191 189 187 183 193 196 189 190 184 182 182 181 179 174 174 175 183 182 185 180 179
253 264 271 260 249 252 247 251 234 251 270 247 232 221 211 215 228 231 233 232 231 217 212 202 202 208 198 190 188 187 198 203 208 210 211 203 206 205 205 197 198 199 190 188 182 181 190 199 190 183 179 178 177 177 172 168 170 170 178 182 186 187
243 248 258 265 265 252 235 247 231 220 247 237 231 227 214 215 219 234 227 233 228 222 218 203 199 197 190 189 190 194 202 202 200 201 197 198 210 213 201 210 194 187 188 187 179 179 195 205 194 186 184 178 178 172 166 168 171 176 179 182 188 190
248 248 255 270 274 270 261 251 228 227 245 235 232 216 227 209 226 229 222 229 227 220 216 211 197 190 187 188 196 206 205 198 198 198 181 192 199 194 201 199 195 189 183 183 189 184 198 200 201 193 188 183 176 165 160 157 148 147 154 168 169 163
263 263 255 269 282 277 265 249 239 241 250 245 228 215 228 218 228 229 222 229 225 216 208 209 200 192 186 188 204 207 206 198 193 194 183 192 190 202 204 196 200 200 191 187 192 192 188 204 203 197 193 186 176 167 163 157 149 139 130 110 93 128
261 274 288 279 276 275 270 255 243 248 254 250 241 225 228 227 233 230 226 229 223 209 197 197 202 196 190 197 205 198 196 197 196 173 174 196 186 198 191 198 194 198 205 204 195 189 189 193 202 198 195 187 177 164 152 151 144 142 138 138 159 198
320 295 280 270 265 271 286 288 256 247 252 252 237 237 236 232 229 229 230 235 219 190 190 192 199 202 196 200 194 188 191 177 176 184 182 186 186 189 189 193 195 191 202 200 196 195 193 186 192 195 196 189 177 166 154 154 147 151 157 164 169 183
280 268 270 272 272 277 280 288 270 262 254 247 239 240 236 231 232 233 234 228 202 196 195 195 199 202 201 192 185 175 175 183 188 181 183 185 182 179 190 197 200 199 201 200 201 192 197 188 181 193 192 189 180 170 159 166 166 156 153 159 167 188
277 275 274 265 266 272 278 269 262 262 262 252 246 244 236 229 232 233 229 210 208 203 198 199 203 201 195 180 169 178 189 187 181 184 184 183 178 184 192 191 196 195 198 208 204 200 195 190 187 177 190 189 186 179 170 164 172 154 146 143 156 170
275 270 268 273 270 268 264 254 258 264 261 253 252 253 241 231 234 227 218 215 212 206 201 201 196 193 188 185 183 181 187 177 182 187 180 178 182 187 190 193 192 193 201 206 210 200 189 181 189 182 182 189 185 183 178 169 157 148 148 152 166 179
271 273 275 275 272 263 260 239 254 261 264 262 259 258 247 240 229 215 213 214 211 202 204 199 198 195 188 185 179 183 180 180 185 184 186 180 181 186 192 194 190 194 199 201 201 198 190 188 183 196 188 186 187 186 181 166 148 150 156 149 150 146
282 285 284 280 275 268 259 241 242 258 262 264 268 260 247 239 221 211 217 216 209 206 204 192 195 194 190 184 175 181 185 182 179 184 190 182 186 187 193 194 189 196 198 194 197 195 188 185 189 179 191 186 188 184 176 161 151 140 130 131 129 144
276 280 284 288 277 273 269 256 234 249 257 262 268 258 249 229 217 218 220 216 208 206 185 190 194 191 192 185 186 189 189 183 184 189 186 188 190 190 191 190 190 196 193 197 192 190 186 178 178 182 175 180 181 178 171 160 155 150 147 135 143 150
296 291 286 286 289 283 274 265 251 243 259 266 265 263 236 225 218 222 220 213 208 194 187 189 190 189 190 190 188 190 189 188 187 189 189 193 192 192 193 189 188 195 195 195 188 177 174 180 182 182 176 177 173 174 167 153 150 138 127 119 121 128
285 291 292 288 285 284 280 277 269 262 259 262 265 254 230 227 221 219 218 212 202 198 191 196 190 186 189 191 189 187 190 192 189 193 195 192 194 190 194 191 193 195 193 189 170 162 169 187 191 188 182 178 172 169 163 154 144 149 148 136 130 124
290 285 289 287 287 286 283 281 277 272 268 264 256 230 223 230 224 221 223 211 198 201 193 196 191 193 190 190 196 203 199 191 191 199 209 217 216 213 196 187 186 178 167 159 162 168 185 192 201 204 188 185 176 167 162 161 164 156 150 143 132 121
272 282 285 285 288 288 282 282 281 276 267 257 240 215 222 229 223 221 222 200 202 202 191 196 195 194 192 189 191 192 202 208 201 205 202 201 191 191 186 174 183 170 157 169 189 184 185 198 204 178 182 182 170 167 165 157 147 139 134 142 140 132
291 283 280 282 289 285 280 281 282 282 270 242 226 211 222 220 222 223 220 201 203 202 200 198 195 192 193 192 189 188 190 187 193 194 196 189 180 183 184 181 174 171 183 178 179 197 240 267 175 173 178 175 170 162 154 146 141 136 141 139 128 125
293 287 284 287 291 289 287 284 282 278 268 237 222 212 218 216 217 223 217 210 205 200 203 201 197 190 191 194 190 191 187 186 181 190 196 189 188 190 188 185 179 178 182 187 177 165 166 164 169 170 173 171 163 156 146 140 142 147 148 151 138 132
280 282 286 289 289 292 292 288 284 279 260 234 218 210 217 219 219 226 221 212 204 197 198 198 197 194 193 191 189 192 190 188 188 181 180 179 183 181 179 177 177 178 180 176 168 169 167 161 165 169 165 163 160 154 152 147 147 151 151 145 142 146
281 282 285 287 290 291 293 291 286 282 259 226 215 213 219 221 222 227 223 212 205 195 196 199 198 196 198 196 196 196 193 198 195 196 182 159 141 146 165 182 176 174 172 171 167 164 157 158 163 163 162 161 158 153 148 146 146 153 158 157 157 150
283 284 283 284 289 290 288 285 283 282 244 220 212 218 225 226 227 229 236 228 210 206 202 197 198 198 195 194 196 196 198 198 195 186 181 181 179 179 174 167 165 173 169 167 166 159 152 151 154 161 160 156 152 151 148 140 140 153 163 143 119 145
278 282 286 288 287 286 284 281 281 276 219 214 212 218 224 227 225 228 227 225 214 211 209 200 200 196 195 195 196 196 197 192 186 186 188 184 181 175 162 151 153 138 144 152 161 155 150 149 148 151 155 154 152 149 147 149 158 152 158 145 145 148